Location: Days
(41.3591°N, 106.7339°W)
Time: 06:07:32
(UTC+00:00)

AIST 2D - Pass Details

Date: 08 July 2022
Orbit: 433 x 443 km, 97.0° (Epoch: 14 August)

Event Time Altitude Azimuth Distance (km) Brightness Sun altitude
Rises 05:20:37 0° 358° (N) 2,429 ? -21.1°
Reaches altitude 10° 05:22:51 10° 345° (NNW) 1,557 ? -21.3°
Maximum altitude 05:25:38 25° 289° (WNW) 934 ? -21.6°
Enters shadow 05:27:06 18° 250° (WSW) 1,144 ? -21.7°
